Brinson, GA

4:46 AM EDT on August 29, 2016 (GMT -0400)
Decatur County Industrial

Weather History for KBGE - November, 2013

Change the Weather History Date:

Tuesday, November 12, 2013

  Actual Average (KMAI) Record (KMAI)
Temperature  
Mean Temperature 64 °F 61 °F  
Max Temperature 78 °F 73 °F 84 °F (2015)
Min Temperature 46 °F 49 °F 28 °F (2011)
Degree Days  
Heating Degree Days 1    
Month to date heating degree days  
Since 1 July heating degree days  
Cooling Degree Days 0    
Month to date cooling degree days  
Year to date cooling degree days  
Growing Degree Days 14 (Base 50)    
Moisture  
Dew Point 47 °F    
Average Humidity 65    
Maximum Humidity 100    
Minimum Humidity 26    
Precipitation  
Precipitation 0.00 in 0.13 in 3.70 in (1997)
Month to date precipitation 1.43  
Year to date precipitation 46.98  
Sea Level Pressure  
Sea Level Pressure 30.18 in    
Wind  
Wind Speed 4 mph (NNW)    
Max Wind Speed 22 mph    
Max Gust Speed 32 mph    
Visibility 10 miles    
Events      
T = Trace of Precipitation, MM = Missing Value Source: NWS Daily Summary

Daily Weather History Graph

Daily Weather History Graph

Search for Another Location

Airport or City:

Trip Planner

Search our weather history database for the weather conditions in past years. The results will help you decide how hot, cold, wet, or windy it might be!

Date:

Astronomy

Nov. 12, 2013 Rise Set
Actual Time 7:03 AM EST 5:42 PM EST
Civil Twilight 6:37 AM EST 6:07 PM EST
Nautical Twilight 6:08 AM EST 6:36 PM EST
Astronomical Twilight 5:39 AM EST 7:05 PM EST
Moon 2:38 PM EST (11/12) 2:11 AM EST (11/12)
Length of Visible Light 11h 30m
Length of Day
10h 39m
Waxing Gibbous, 76% of the Moon is Illuminated
Nov 12
Waxing Gibbous
Nov 17
Full
Nov 25
Last Quarter
Dec 2
New
Dec 9
First Quarter

Hourly Weather History & Observations

Time (EST) Temp. Windchill Dew Point Humidity Pressure Visibility Wind Dir Wind Speed Gust Speed Precip Events Conditions
12:15 AM 55.4 °F - 51.8 °F 88% 30.17 in 10.0 mi Calm Calm - N/A   Clear
12:35 AM 53.6 °F - 50.0 °F 88% 30.16 in 10.0 mi Calm Calm - N/A   Clear
12:55 AM 53.6 °F - 50.0 °F 88% 30.16 in 10.0 mi Calm Calm - N/A   Clear
1:15 AM 53.6 °F - 51.8 °F 94% 30.15 in 10.0 mi Calm Calm - N/A   Clear
1:35 AM 53.6 °F - 51.8 °F 94% 30.15 in 10.0 mi Calm Calm - N/A   Clear
1:55 AM 53.6 °F - 51.8 °F 94% 30.15 in 10.0 mi Calm Calm - N/A   Clear
2:15 AM 53.6 °F - 51.8 °F 94% 30.15 in 10.0 mi Calm Calm - N/A   Clear
2:35 AM 51.8 °F - 50.0 °F 94% 30.15 in 10.0 mi Calm Calm - N/A   Clear
2:55 AM 53.6 °F - 51.8 °F 94% 30.15 in 10.0 mi Calm Calm - N/A   Clear
3:15 AM 53.6 °F - 50.0 °F 88% 30.15 in 10.0 mi Calm Calm - N/A   Clear
3:35 AM 51.8 °F - 48.2 °F 88% 30.15 in 10.0 mi Calm Calm - N/A   Clear
3:55 AM 51.8 °F - 48.2 °F 88% 30.15 in 10.0 mi Calm Calm - N/A   Clear
4:15 AM 50.0 °F - 46.4 °F 87% 30.15 in 10.0 mi Calm Calm - N/A   Clear
4:35 AM 51.8 °F - 50.0 °F 94% 30.15 in 10.0 mi Calm Calm - N/A   Clear
4:55 AM 51.8 °F - 50.0 °F 94% 30.15 in 10.0 mi Calm Calm - N/A   Clear
5:15 AM 51.8 °F - 50.0 °F 94% 30.15 in 10.0 mi Calm Calm - N/A   Clear
5:35 AM 50.0 °F - 48.2 °F 94% 30.15 in 10.0 mi Calm Calm - N/A   Clear
5:55 AM 51.8 °F - 50.0 °F 94% 30.17 in 10.0 mi Calm Calm - N/A   Clear
6:15 AM 51.8 °F - 50.0 °F 94% 30.17 in 10.0 mi Calm Calm - N/A   Clear
6:35 AM 51.8 °F - 50.0 °F 94% 30.17 in 10.0 mi Calm Calm - N/A   Clear
6:55 AM 50.0 °F - 46.4 °F 87% 30.17 in 10.0 mi Calm Calm - N/A   Clear
7:15 AM 51.8 °F - 50.0 °F 94% 30.18 in 10.0 mi Calm Calm - N/A   Clear
7:35 AM 50.0 °F - 46.4 °F 87% 30.18 in 10.0 mi Calm Calm - N/A   Clear
7:55 AM 50.0 °F - 50.0 °F 100% 30.18 in 10.0 mi Calm Calm - N/A   Clear
8:15 AM 51.8 °F - 51.8 °F 100% 30.19 in 10.0 mi Calm Calm - N/A   Clear
8:35 AM 53.6 °F - 51.8 °F 94% 30.19 in 10.0 mi Calm Calm - N/A   Clear
8:55 AM 53.6 °F - 51.8 °F 94% 30.19 in 10.0 mi Calm Calm - N/A   Clear
9:15 AM 55.4 °F - 51.8 °F 88% 30.20 in 10.0 mi Calm Calm - N/A   Clear
9:35 AM 59.0 °F - 53.6 °F 82% 30.19 in 10.0 mi Calm Calm - N/A   Clear
9:55 AM 60.8 °F - 55.4 °F 82% 30.19 in 10.0 mi Calm Calm - N/A   Clear
10:15 AM 62.6 °F - 55.4 °F 77% 30.18 in 10.0 mi Calm Calm - N/A   Clear
10:35 AM 64.4 °F - 53.6 °F 68% 30.18 in 10.0 mi Calm Calm - N/A   Clear
10:55 AM 68.0 °F - 50.0 °F 52% 30.18 in 10.0 mi Calm Calm - N/A   Clear
11:15 AM 71.6 °F - 50.0 °F 46% 30.17 in 10.0 mi Calm Calm - N/A   Clear
11:35 AM 73.4 °F - 50.0 °F 44% 30.17 in 10.0 mi Calm Calm - N/A   Clear
11:55 AM 73.4 °F - 46.4 °F 38% 30.16 in 10.0 mi Calm Calm - N/A   Clear
12:15 PM 75.2 °F - 44.6 °F 34% 30.15 in 10.0 mi Calm Calm - N/A   Clear
12:35 PM 77.0 °F - 41.0 °F 28% 30.14 in 10.0 mi NNW 9.2 mph - N/A   Clear
12:55 PM 77.0 °F - 41.0 °F 28% 30.12 in 10.0 mi NNW 9.2 mph - N/A   Clear
1:15 PM 78.8 °F - 42.8 °F 28% 30.11 in 10.0 mi North 8.1 mph - N/A   Clear
1:35 PM 78.8 °F - 41.0 °F 26% 30.11 in 10.0 mi NW 8.1 mph - N/A   Clear
1:55 PM 78.8 °F - 41.0 °F 26% 30.10 in 10.0 mi NNW 11.5 mph - N/A   Clear
2:15 PM 78.8 °F - 42.8 °F 28% 30.10 in 10.0 mi NW 12.7 mph 16.1 mph N/A   Clear
2:35 PM 78.8 °F - 42.8 °F 28% 30.10 in 10.0 mi NW 11.5 mph 17.3 mph N/A   Clear
2:55 PM 78.8 °F - 44.6 °F 30% 30.10 in 10.0 mi NNW 10.4 mph 17.3 mph N/A   Clear
3:15 PM 77.0 °F - 42.8 °F 29% 30.10 in 10.0 mi NNW 12.7 mph 17.3 mph N/A   Clear
3:35 PM 77.0 °F - 44.6 °F 32% 30.11 in 10.0 mi NNW 17.3 mph 26.5 mph N/A   Clear
3:55 PM 73.4 °F - 44.6 °F 36% 30.11 in 10.0 mi NNW 15.0 mph 20.7 mph N/A   Clear
4:15 PM 73.4 °F - 46.4 °F 38% 30.12 in 10.0 mi NNW 12.7 mph 18.4 mph N/A   Clear
4:35 PM 73.4 °F - 46.4 °F 38% 30.12 in 10.0 mi NNW 8.1 mph - N/A   Clear
4:55 PM 73.4 °F - 50.0 °F 44% 30.12 in 10.0 mi NNW 8.1 mph - N/A   Clear
5:15 PM 71.6 °F - 48.2 °F 43% 30.13 in 10.0 mi NNW 6.9 mph - N/A   Clear
5:35 PM 71.6 °F - 48.2 °F 43% 30.13 in 10.0 mi NNW 8.1 mph - N/A   Clear
5:55 PM 71.6 °F - 48.2 °F 43% 30.14 in 10.0 mi NNW 11.5 mph 17.3 mph N/A   Clear
6:15 PM 69.8 °F - 46.4 °F 43% 30.15 in 10.0 mi NNW 12.7 mph 18.4 mph N/A   Clear
6:35 PM 68.0 °F - 46.4 °F 46% 30.17 in 10.0 mi NNW 15.0 mph 20.7 mph N/A   Clear
6:55 PM 66.2 °F - 46.4 °F 49% 30.18 in 10.0 mi NNW 9.2 mph 20.7 mph N/A   Clear
7:15 PM 66.2 °F - 50.0 °F 56% 30.19 in 10.0 mi NNW 15.0 mph 20.7 mph N/A   Clear
7:35 PM 64.4 °F - 50.0 °F 59% 30.21 in 10.0 mi NNW 15.0 mph - N/A   Clear
7:55 PM 62.6 °F - 48.2 °F 59% 30.23 in 10.0 mi NNW 13.8 mph 25.3 mph N/A   Clear
8:15 PM 60.8 °F - 46.4 °F 59% 30.24 in 10.0 mi North 21.9 mph 28.8 mph N/A   Clear
8:35 PM 59.0 °F - 44.6 °F 59% 30.26 in 10.0 mi North 15.0 mph 27.6 mph N/A   Clear
8:55 PM 57.2 °F - 42.8 °F 59% 30.27 in 10.0 mi North 15.0 mph 24.2 mph N/A   Clear
9:15 PM 55.4 °F - 41.0 °F 58% 30.28 in 10.0 mi North 13.8 mph 20.7 mph N/A   Clear
9:35 PM 55.4 °F - 41.0 °F 58% 30.29 in 10.0 mi North 16.1 mph 23.0 mph N/A   Clear
9:55 PM 53.6 °F - 39.2 °F 58% 30.30 in 10.0 mi North 17.3 mph 25.3 mph N/A   Clear
10:15 PM 53.6 °F - 39.2 °F 58% 30.31 in 10.0 mi North 15.0 mph 21.9 mph N/A   Clear
10:35 PM 53.6 °F - 39.2 °F 58% 30.31 in 10.0 mi North 11.5 mph 19.6 mph N/A   Clear
10:55 PM 53.6 °F - 37.4 °F 54% 30.33 in 10.0 mi NNE 12.7 mph 19.6 mph N/A   Clear
11:15 PM 51.8 °F - 32.0 °F 47% 30.34 in 10.0 mi North 20.7 mph 32.2 mph N/A   Clear
11:35 PM 50.0 °F - 32.0 °F 50% 30.34 in 10.0 mi North 15.0 mph 28.8 mph N/A   Clear
11:55 PM 46.4 °F 40.4 °F 28.4 °F 50% 30.36 in 10.0 mi North 13.8 mph 25.3 mph N/A   Clear